Camp Pendleton, CA

1:03 AM PDT on March 25, 2017 (GMT -0700)
Camp Pendleton Marine Corps Air Station

Weather History for KNFG - November, 2013

Change the Weather History Date:

Friday, November 1, 2013

  Actual Average Record
Temperature  
Mean Temperature 62 °F -  
Max Temperature 87 °F 70 °F 89 °F (1997)
Min Temperature 37 °F 44 °F 37 °F (2013)
Degree Days  
Heating Degree Days 3    
Growing Degree Days 12 (Base 50)    
Moisture  
Dew Point 36 °F    
Average Humidity 51    
Maximum Humidity 86    
Minimum Humidity 12    
Precipitation  
Precipitation 0.00 in - - ()
Sea Level Pressure  
Sea Level Pressure 30.01 in    
Wind  
Wind Speed 2 mph (SSW)    
Max Wind Speed 9 mph    
Max Gust Speed -    
Visibility 10 miles    
Events      
Averages and records for this station are not official NWS values.
T = Trace of Precipitation, MM = Missing Value Source: NWS Daily Summary

Daily Weather History Graph

Daily Weather History Graph

Search for Another Location

Airport or City:

Trip Planner

Search our weather history database for the weather conditions in past years. The results will help you decide how hot, cold, wet, or windy it might be!

Date:

Astronomy

Nov. 01, 2013 Rise Set
Actual Time 7:08 AM PDT 5:57 PM PDT
Civil Twilight 6:42 AM PDT 6:22 PM PDT
Nautical Twilight 6:13 AM PDT 6:52 PM PDT
Astronomical Twilight 5:44 AM PDT 7:21 PM PDT
Moon 5:10 AM PDT (11/1) 4:49 PM PDT (11/1)
Length of Visible Light 11h 40m
Length of Day
10h 49m
Waning Crescent, 4% of the Moon is Illuminated
Nov 1
Waning Crescent
Nov 3
New
Nov 9
First Quarter
Nov 17
Full
Nov 25
Last Quarter

Hourly Weather History & Observations

Time (PDT) Temp. Windchill Dew Point Humidity Pressure Visibility Wind Dir Wind Speed Gust Speed Precip Events Conditions
12:54 AM 48.0 °F - 39.9 °F 74% 30.06 in 10.0 mi Calm Calm - N/A   Clear
1:54 AM 45.0 °F - 37.9 °F 76% 30.06 in 10.0 mi Calm Calm - N/A   Clear
2:54 AM 44.1 °F - 37.0 °F 76% 30.06 in 10.0 mi Calm Calm - N/A   Clear
3:54 AM 37.9 °F 35.5 °F 34.0 °F 86% 30.05 in 10.0 mi WNW 3.5 mph - N/A   Clear
4:54 AM 42.1 °F - 36.0 °F 79% 30.06 in 10.0 mi Calm Calm - N/A   Clear
5:54 AM 39.9 °F - 35.1 °F 83% 30.07 in 10.0 mi Calm Calm - N/A   Clear
6:54 AM 39.9 °F - 35.1 °F 83% 30.07 in 10.0 mi Calm Calm - N/A   Clear
7:54 AM 43.0 °F - 36.0 °F 76% 30.09 in 10.0 mi Calm Calm - N/A   Clear
8:54 AM 55.0 °F - 36.0 °F 49% 30.09 in 10.0 mi Calm Calm - N/A   Clear
9:54 AM 66.0 °F - 37.9 °F 36% 30.08 in 10.0 mi South 3.5 mph - N/A   Clear
10:54 AM 75.9 °F - 30.9 °F 19% 30.07 in 10.0 mi Variable 3.5 mph - N/A   Clear
11:54 AM 79.0 °F - 41.0 °F 26% 30.05 in 10.0 mi SW 5.8 mph - N/A   Clear
12:54 PM 82.9 °F - 28.0 °F 14% 30.01 in 10.0 mi South 3.5 mph - N/A   Clear
1:54 PM 82.9 °F - 32.0 °F 16% 29.98 in 10.0 mi SW 6.9 mph - N/A   Clear
2:54 PM 84.9 °F - 28.0 °F 13% 29.94 in 10.0 mi SSW 8.1 mph - N/A   Clear
3:54 PM 87.1 °F - 28.0 °F 12% 29.92 in 10.0 mi Variable 3.5 mph - N/A   Clear
4:54 PM 82.9 °F - 33.1 °F 17% 29.91 in 10.0 mi SSW 9.2 mph - N/A   Clear
5:54 PM 73.0 °F - 41.0 °F 31% 29.92 in 10.0 mi South 5.8 mph - N/A   Clear
6:54 PM 64.0 °F - 43.0 °F 46% 29.94 in 10.0 mi Calm Calm - N/A   Clear
7:54 PM 59.0 °F - 43.0 °F 55% 29.95 in 10.0 mi Calm Calm - N/A   Clear
8:54 PM 53.1 °F - 41.0 °F 64% 29.96 in 10.0 mi Calm Calm - N/A   Clear
9:54 PM 51.1 °F - 39.0 °F 63% 29.97 in 10.0 mi Calm Calm - N/A   Clear
10:54 PM 53.1 °F - 37.0 °F 55% 29.99 in 10.0 mi Calm Calm - N/A   Clear
11:54 PM 48.0 °F - 37.0 °F 66% 30.00 in 10.0 mi Calm Calm - N/A   Clear